AFL240 ULAA-UWGG

Flight info

Callsign AFL240
Flight time 1h 28m
Altitude 35000
Route ABELU T825 RUPAD P988 TIPNA T747 POGAS T439 USTOK
Aircraft A320/M-V/N

Departure

Time 2026-04-16 09:38
Airport Talagi Airport (ULAA)

Arrival

Time 2026-04-16 11:07
Airport Nizhny Novgorod / Strigino International Airport (UWGG)
Time Latitude Longitude Altitude Speed Heading
2026-04-16 09:21 64.59662 40.71388 40 ft 0 kts 186°
2026-04-16 09:30 64.59682 40.71393 40 ft 4 kts 184°
2026-04-16 09:30 64.59708 40.71392 40 ft 4 kts 162°
2026-04-16 09:30 64.59722 40.71366 40 ft 2 kts 98°
2026-04-16 09:30 64.59726 40.71307 40 ft 4 kts 96°
2026-04-16 09:31 64.59729 40.71245 40 ft 4 kts 95°
2026-04-16 09:31 64.59731 40.71182 40 ft 4 kts 95°
2026-04-16 09:31 64.59733 40.71140 40 ft 0 kts 96°
2026-04-16 09:33 64.59731 40.71194 40 ft 5 kts 88°
2026-04-16 09:34 64.59748 40.71250 38 ft 6 kts 36°
2026-04-16 09:34 64.59803 40.71284 40 ft 8 kts 19°
2026-04-16 09:34 64.59829 40.71416 40 ft 15 kts 96°
2026-04-16 09:34 64.59817 40.71650 40 ft 14 kts 97°
2026-04-16 09:35 64.59806 40.71857 39 ft 12 kts 96°
2026-04-16 09:35 64.59795 40.72104 40 ft 23 kts 97°
2026-04-16 09:35 64.59775 40.72507 40 ft 26 kts 96°
2026-04-16 09:35 64.59756 40.72930 40 ft 27 kts 96°
2026-04-16 09:36 64.59733 40.73370 40 ft 28 kts 96°
2026-04-16 09:36 64.59711 40.73711 40 ft 19 kts 105°
2026-04-16 09:36 64.59693 40.74020 38 ft 19 kts 97°
2026-04-16 09:36 64.59721 40.74181 39 ft 9 kts 17°
2026-04-16 09:37 64.59781 40.74200 40 ft 8 kts
2026-04-16 09:37 64.59833 40.74214 37 ft 7 kts
2026-04-16 09:37 64.59888 40.74212 37 ft 9 kts 334°
2026-04-16 09:37 64.59910 40.74081 35 ft 10 kts 277°
2026-04-16 09:38 64.59933 40.73601 35 ft 67 kts 277°
2026-04-16 09:38 64.60018 40.71887 35 ft 143 kts 276°
2026-04-16 09:38 64.60143 40.69340 599 ft 160 kts 276°
2026-04-16 09:38 64.60281 40.66789 1557 ft 161 kts 278°
2026-04-16 09:39 64.60391 40.64177 2224 ft 169 kts 275°
2026-04-16 09:39 64.60262 40.61352 2587 ft 187 kts 244°
2026-04-16 09:39 64.59258 40.59350 2961 ft 206 kts 198°
2026-04-16 09:39 64.57766 40.58806 3306 ft 228 kts 189°
2026-04-16 09:40 64.56124 40.58205 3765 ft 249 kts 192°
2026-04-16 09:40 64.54394 40.57402 4517 ft 257 kts 194°
2026-04-16 09:40 64.52669 40.56547 5405 ft 256 kts 196°
2026-04-16 09:40 64.50928 40.55631 6249 ft 259 kts 195°
2026-04-16 09:41 64.49163 40.54725 7131 ft 262 kts 194°
2026-04-16 09:41 64.47383 40.53813 7993 ft 264 kts 195°
2026-04-16 09:41 64.45572 40.52897 8870 ft 270 kts 195°
2026-04-16 09:41 64.43736 40.52006 9780 ft 272 kts 196°
2026-04-16 09:42 64.41883 40.51093 10597 ft 276 kts 197°
2026-04-16 09:42 64.39928 40.50123 10884 ft 299 kts 197°
2026-04-16 09:42 64.37846 40.49082 11114 ft 322 kts 197°
2026-04-16 09:42 64.35617 40.47983 11599 ft 332 kts 197°
2026-04-16 09:43 64.33341 40.46884 12274 ft 336 kts 197°
2026-04-16 09:43 64.31040 40.45779 12965 ft 339 kts 198°
2026-04-16 09:43 64.28721 40.44658 13654 ft 342 kts 197°
2026-04-16 09:43 64.26378 40.43515 14329 ft 347 kts 198°
2026-04-16 09:44 64.24013 40.42358 15026 ft 348 kts 197°
2026-04-16 09:44 64.21663 40.41216 15686 ft 351 kts 197°
2026-04-16 09:44 64.19266 40.40052 16316 ft 354 kts 197°
2026-04-16 09:44 64.16842 40.38895 16931 ft 357 kts 197°
2026-04-16 09:45 64.14398 40.37730 17555 ft 360 kts 197°
2026-04-16 09:45 64.11938 40.36555 18163 ft 362 kts 197°
2026-04-16 09:45 64.09459 40.35361 18734 ft 366 kts 197°
2026-04-16 09:45 64.06960 40.34164 19272 ft 369 kts 197°
2026-04-16 09:46 64.04442 40.32959 19796 ft 372 kts 197°
2026-04-16 09:46 64.01903 40.31742 20321 ft 374 kts 197°
2026-04-16 09:46 63.99344 40.30520 20793 ft 378 kts 197°
2026-04-16 09:46 63.96791 40.29299 21278 ft 381 kts 197°
2026-04-16 09:47 63.94187 40.28058 21755 ft 384 kts 197°
2026-04-16 09:47 63.91560 40.26813 22212 ft 387 kts 197°
2026-04-16 09:47 63.88912 40.25563 22683 ft 390 kts 197°
2026-04-16 09:47 63.86247 40.24307 23106 ft 392 kts 197°
2026-04-16 09:48 63.83566 40.23043 23531 ft 395 kts 197°
2026-04-16 09:48 63.80866 40.21770 23953 ft 398 kts 197°
2026-04-16 09:48 63.78148 40.20498 24378 ft 400 kts 197°
2026-04-16 09:48 63.75448 40.19236 24786 ft 403 kts 197°
2026-04-16 09:49 63.72721 40.17778 25170 ft 402 kts 202°
2026-04-16 09:49 63.70071 40.15751 25553 ft 403 kts 204°
2026-04-16 09:49 63.67411 40.13696 25933 ft 405 kts 204°
2026-04-16 09:49 63.64737 40.11637 26298 ft 408 kts 204°
2026-04-16 09:50 63.62043 40.09568 26655 ft 410 kts 204°
2026-04-16 09:50 63.59338 40.07504 27014 ft 411 kts 203°
2026-04-16 09:50 63.56618 40.05439 27334 ft 414 kts 203°
2026-04-16 09:50 63.53885 40.03375 27642 ft 416 kts 203°
2026-04-16 09:51 63.51170 40.01322 27953 ft 418 kts 203°
2026-04-16 09:51 63.48405 39.99230 28262 ft 421 kts 203°
2026-04-16 09:51 63.45627 39.97119 28576 ft 423 kts 203°
2026-04-16 09:51 63.42762 39.95440 28870 ft 427 kts 197°
2026-04-16 09:52 63.39858 39.93991 29139 ft 429 kts 197°
2026-04-16 09:52 63.36940 39.92548 29409 ft 430 kts 197°
2026-04-16 09:52 63.34009 39.91098 29673 ft 432 kts 197°
2026-04-16 09:52 63.31070 39.89640 30037 ft 432 kts 197°
2026-04-16 09:53 63.28179 39.88205 30400 ft 432 kts 197°
2026-04-16 09:53 63.25251 39.86759 30774 ft 431 kts 197°
2026-04-16 09:53 63.22329 39.85317 31123 ft 430 kts 197°
2026-04-16 09:53 63.19404 39.83879 31472 ft 430 kts 197°
2026-04-16 09:54 63.16483 39.82444 31813 ft 430 kts 197°
2026-04-16 09:54 63.13570 39.81013 32155 ft 429 kts 197°
2026-04-16 09:54 63.10659 39.79580 32485 ft 428 kts 197°
2026-04-16 09:54 63.07750 39.78154 32796 ft 429 kts 196°
2026-04-16 09:55 63.04879 39.76766 33114 ft 429 kts 196°
2026-04-16 09:55 63.01968 39.75353 33423 ft 428 kts 196°
2026-04-16 09:55 62.99061 39.73935 33726 ft 428 kts 196°
2026-04-16 09:55 62.96159 39.72522 34020 ft 428 kts 196°
2026-04-16 09:56 62.93251 39.71115 34167 ft 428 kts 196°
2026-04-16 09:56 62.87438 39.68318 34192 ft 428 kts 196°
2026-04-16 09:57 62.81621 39.65512 34192 ft 428 kts 195°
2026-04-16 09:57 62.75832 39.62756 34192 ft 429 kts 195°
2026-04-16 09:58 62.69996 39.59977 34191 ft 429 kts 195°
2026-04-16 09:58 62.64158 39.57207 34192 ft 429 kts 195°
2026-04-16 09:59 62.58319 39.54441 34192 ft 430 kts 195°
2026-04-16 09:59 62.52464 39.51674 34193 ft 431 kts 195°
2026-04-16 10:00 62.46645 39.48940 34193 ft 431 kts 195°
2026-04-16 10:00 62.40777 39.46211 34190 ft 431 kts 195°
2026-04-16 10:01 62.31970 39.42134 34196 ft 432 kts 195°
2026-04-16 10:01 62.26096 39.39406 34198 ft 432 kts 194°
2026-04-16 10:02 62.20262 39.36712 34192 ft 432 kts 194°
2026-04-16 10:02 62.14380 39.34027 34192 ft 432 kts 194°
2026-04-16 10:03 62.08508 39.31334 34193 ft 432 kts 194°
2026-04-16 10:03 62.02626 39.28659 34180 ft 432 kts 194°
2026-04-16 10:04 61.96784 39.26007 34192 ft 432 kts 194°
2026-04-16 10:04 61.90884 39.23329 34199 ft 434 kts 194°
2026-04-16 10:05 61.84968 39.20726 34200 ft 434 kts 193°
2026-04-16 10:05 61.79027 39.18319 34202 ft 435 kts 192°
2026-04-16 10:06 61.73117 39.15987 34196 ft 435 kts 192°
2026-04-16 10:06 61.67170 39.13587 34202 ft 435 kts 192°
2026-04-16 10:07 61.61229 39.11159 34200 ft 435 kts 192°
2026-04-16 10:07 61.55282 39.08751 34199 ft 435 kts 192°
2026-04-16 10:08 61.49333 39.06357 34202 ft 435 kts 192°
2026-04-16 10:08 61.43431 39.03994 34201 ft 435 kts 192°
2026-04-16 10:09 61.37479 39.01640 34202 ft 435 kts 192°
2026-04-16 10:09 61.31525 38.99298 34203 ft 436 kts 189°
2026-04-16 10:10 61.25470 38.99328 34202 ft 438 kts 173°
2026-04-16 10:10 61.19466 39.01088 34199 ft 439 kts 173°
2026-04-16 10:11 61.13414 39.02797 34207 ft 439 kts 173°
2026-04-16 10:11 61.07367 39.04491 34200 ft 439 kts 173°
2026-04-16 10:12 61.01316 39.06192 34197 ft 439 kts 173°
2026-04-16 10:12 60.95264 39.07899 34211 ft 439 kts 173°
2026-04-16 10:13 60.89245 39.09569 34201 ft 439 kts 173°
2026-04-16 10:13 60.83183 39.11254 34203 ft 440 kts 173°
2026-04-16 10:14 60.77121 39.12941 34200 ft 439 kts 173°
2026-04-16 10:14 60.71070 39.14633 34202 ft 439 kts 173°
2026-04-16 10:15 60.65058 39.16290 34200 ft 439 kts 173°
2026-04-16 10:15 60.59003 39.17923 34199 ft 439 kts 173°
2026-04-16 10:16 60.52946 39.19583 34200 ft 439 kts 173°
2026-04-16 10:16 60.46891 39.21260 34195 ft 438 kts 173°
2026-04-16 10:17 60.40888 39.22907 34207 ft 439 kts 173°
2026-04-16 10:17 60.34828 39.24536 34200 ft 439 kts 173°
2026-04-16 10:18 60.28768 39.26152 34199 ft 439 kts 173°
2026-04-16 10:18 60.22710 39.27770 34200 ft 439 kts 173°
2026-04-16 10:19 60.16690 39.29364 34199 ft 439 kts 173°
2026-04-16 10:19 60.10629 39.30825 34202 ft 439 kts 173°
2026-04-16 10:20 60.04562 39.32237 34213 ft 439 kts 173°
2026-04-16 10:20 59.99520 39.33412 34182 ft 438 kts 173°
2026-04-16 10:21 59.93464 39.34871 34201 ft 438 kts 173°
2026-04-16 10:21 59.86428 39.36554 34201 ft 438 kts 173°
2026-04-16 10:22 59.80377 39.37976 34202 ft 438 kts 173°
2026-04-16 10:22 59.75335 39.38989 34199 ft 438 kts 175°
2026-04-16 10:23 59.69253 39.39967 34191 ft 439 kts 175°
2026-04-16 10:23 59.62188 39.41093 34194 ft 438 kts 175°
2026-04-16 10:24 59.57137 39.41937 34192 ft 438 kts 175°
2026-04-16 10:24 59.51056 39.42974 34192 ft 439 kts 175°
2026-04-16 10:25 59.44976 39.44021 34193 ft 439 kts 175°
2026-04-16 10:25 59.38899 39.45050 34192 ft 439 kts 175°
2026-04-16 10:26 59.32817 39.46064 34192 ft 439 kts 174°
2026-04-16 10:26 59.26774 39.47081 34191 ft 439 kts 175°
2026-04-16 10:27 59.20698 39.48116 34193 ft 439 kts 175°
2026-04-16 10:27 59.14612 39.49134 34192 ft 439 kts 174°
2026-04-16 10:28 59.08521 39.50137 34192 ft 439 kts 175°
2026-04-16 10:28 59.02438 39.51144 34192 ft 439 kts 175°
2026-04-16 10:29 58.96392 39.52149 34190 ft 439 kts 175°
2026-04-16 10:29 58.90307 39.53160 34194 ft 439 kts 175°
2026-04-16 10:30 58.84227 39.54166 34192 ft 439 kts 175°
2026-04-16 10:30 58.78144 39.55183 34191 ft 438 kts 174°
2026-04-16 10:31 58.72125 39.56435 34197 ft 438 kts 168°
2026-04-16 10:31 58.66142 39.58776 34192 ft 439 kts 168°
2026-04-16 10:32 58.60155 39.61103 34190 ft 439 kts 168°
2026-04-16 10:32 58.54168 39.63406 34193 ft 439 kts 168°
2026-04-16 10:33 58.48215 39.65687 34192 ft 440 kts 168°
2026-04-16 10:33 58.42221 39.67977 34193 ft 439 kts 168°
2026-04-16 10:34 58.36228 39.70256 34193 ft 440 kts 168°
2026-04-16 10:34 58.30228 39.72530 34187 ft 440 kts 168°
2026-04-16 10:35 58.24230 39.74807 34192 ft 439 kts 169°
2026-04-16 10:35 58.18274 39.77052 34189 ft 439 kts 168°
2026-04-16 10:36 58.12270 39.79290 34192 ft 440 kts 169°
2026-04-16 10:36 58.06270 39.81526 34196 ft 440 kts 169°
2026-04-16 10:37 58.00266 39.83746 34195 ft 439 kts 168°
2026-04-16 10:37 57.94306 39.85952 34192 ft 439 kts 169°
2026-04-16 10:38 57.88312 39.88171 34194 ft 439 kts 169°
2026-04-16 10:38 57.82343 39.90651 34192 ft 439 kts 166°
2026-04-16 10:39 57.76434 39.93585 34183 ft 439 kts 165°
2026-04-16 10:39 57.70571 39.96528 34190 ft 439 kts 165°
2026-04-16 10:40 57.64657 39.99346 34188 ft 439 kts 166°
2026-04-16 10:40 57.58740 40.02116 34188 ft 439 kts 166°
2026-04-16 10:41 57.52812 40.04886 34192 ft 439 kts 166°
2026-04-16 10:41 57.46894 40.07653 34191 ft 438 kts 166°
2026-04-16 10:42 57.41010 40.10384 34192 ft 438 kts 166°
2026-04-16 10:42 57.35398 40.14684 33967 ft 437 kts 148°
2026-04-16 10:43 57.32977 40.18059 33382 ft 436 kts 137°
2026-04-16 10:43 57.30918 40.22186 33183 ft 438 kts 128°
2026-04-16 10:43 57.27480 40.31437 33195 ft 440 kts 125°
2026-04-16 10:44 57.24006 40.40749 33192 ft 440 kts 125°
2026-04-16 10:44 57.20524 40.50041 33194 ft 440 kts 125°
2026-04-16 10:45 57.17052 40.59318 33193 ft 440 kts 125°
2026-04-16 10:45 57.13570 40.68582 33189 ft 440 kts 125°
2026-04-16 10:46 57.10112 40.77773 33179 ft 440 kts 125°
2026-04-16 10:46 57.06628 40.87008 33186 ft 440 kts 125°
2026-04-16 10:47 57.03129 40.96212 33184 ft 440 kts 125°
2026-04-16 10:47 56.99619 41.05407 33184 ft 440 kts 125°
2026-04-16 10:48 56.96125 41.14528 33192 ft 440 kts 125°
2026-04-16 10:48 56.92601 41.23709 33189 ft 441 kts 125°
2026-04-16 10:49 56.89066 41.32876 33187 ft 441 kts 125°
2026-04-16 10:49 56.85518 41.42031 33188 ft 441 kts 126°
2026-04-16 10:50 56.81997 41.51096 33189 ft 440 kts 125°
2026-04-16 10:50 56.78449 41.60217 33189 ft 441 kts 126°
2026-04-16 10:51 56.74884 41.69331 33197 ft 441 kts 126°
2026-04-16 10:51 56.73307 41.74050 33141 ft 430 kts 114°
2026-04-16 10:51 56.72222 41.79128 32345 ft 432 kts 110°
2026-04-16 10:52 56.71234 41.84275 31722 ft 430 kts 109°
2026-04-16 10:52 56.70297 41.89353 31107 ft 428 kts 108°
2026-04-16 10:52 56.69358 41.94521 30061 ft 434 kts 108°
2026-04-16 10:52 56.68395 41.99792 28902 ft 443 kts 109°
2026-04-16 10:53 56.67402 42.05148 27707 ft 451 kts 109°
2026-04-16 10:53 56.66379 42.10588 26495 ft 458 kts 109°
2026-04-16 10:53 56.65330 42.16085 25264 ft 463 kts 110°
2026-04-16 10:53 56.64262 42.21630 24029 ft 467 kts 110°
2026-04-16 10:54 56.63185 42.27197 22840 ft 469 kts 110°
2026-04-16 10:54 56.62130 42.32666 22113 ft 461 kts 110°
2026-04-16 10:54 56.61081 42.38122 21330 ft 455 kts 110°
2026-04-16 10:54 56.60044 42.43503 20518 ft 449 kts 110°
2026-04-16 10:55 56.59016 42.48827 19718 ft 444 kts 110°
2026-04-16 10:55 56.57994 42.54089 18937 ft 440 kts 110°
2026-04-16 10:55 56.56980 42.59291 18171 ft 435 kts 110°
2026-04-16 10:55 56.55975 42.64437 17420 ft 431 kts 110°
2026-04-16 10:56 56.54982 42.69514 16568 ft 421 kts 110°
2026-04-16 10:56 56.54030 42.74370 15597 ft 408 kts 110°
2026-04-16 10:56 56.53105 42.79077 14964 ft 386 kts 111°
2026-04-16 10:56 56.52224 42.83554 14334 ft 369 kts 111°
2026-04-16 10:57 56.51377 42.87840 13709 ft 355 kts 111°
2026-04-16 10:57 56.50562 42.91963 13089 ft 342 kts 111°
2026-04-16 10:57 56.49773 42.95941 12477 ft 330 kts 111°
2026-04-16 10:57 56.49005 42.99787 11979 ft 324 kts 111°
2026-04-16 10:58 56.48238 43.03622 11463 ft 324 kts 111°
2026-04-16 10:58 56.47467 43.07456 10911 ft 325 kts 111°
2026-04-16 10:58 56.46693 43.11301 10360 ft 326 kts 111°
2026-04-16 10:58 56.45933 43.15098 9849 ft 326 kts 111°
2026-04-16 10:59 56.45165 43.18951 9356 ft 325 kts 111°
2026-04-16 10:59 56.44396 43.22778 8859 ft 322 kts 112°
2026-04-16 10:59 56.43634 43.26566 8361 ft 317 kts 111°
2026-04-16 10:59 56.42898 43.30216 7855 ft 301 kts 111°
2026-04-16 11:00 56.42202 43.33676 7401 ft 285 kts 112°
2026-04-16 11:00 56.41535 43.36970 6973 ft 273 kts 112°
2026-04-16 11:00 56.40895 43.40121 6547 ft 262 kts 112°
2026-04-16 11:00 56.40288 43.43098 6172 ft 251 kts 112°
2026-04-16 11:01 56.39699 43.45986 5829 ft 239 kts 112°
2026-04-16 11:01 56.39139 43.48729 5577 ft 229 kts 112°
2026-04-16 11:01 56.38594 43.51382 5322 ft 222 kts 112°
2026-04-16 11:01 56.38061 43.53953 5087 ft 217 kts 112°
2026-04-16 11:02 56.37538 43.56489 4848 ft 214 kts 112°
2026-04-16 11:02 56.37022 43.59006 4563 ft 214 kts 112°
2026-04-16 11:02 56.36508 43.61520 4247 ft 214 kts 111°
2026-04-16 11:02 56.35996 43.64005 3959 ft 213 kts 112°
2026-04-16 11:03 56.35485 43.66511 3685 ft 213 kts 111°
2026-04-16 11:03 56.34966 43.69018 3390 ft 215 kts 111°
2026-04-16 11:03 56.33932 43.74020 2793 ft 206 kts 111°
2026-04-16 11:04 56.33443 43.76385 2522 ft 197 kts 111°
2026-04-16 11:04 56.32973 43.78638 2275 ft 186 kts 111°
2026-04-16 11:04 56.32451 43.80676 1991 ft 176 kts 129°
2026-04-16 11:04 56.31392 43.81598 1723 ft 171 kts 176°
2026-04-16 11:05 56.30268 43.81249 1517 ft 163 kts 188°
2026-04-16 11:05 56.29184 43.80853 1308 ft 153 kts 189°
2026-04-16 11:05 56.28175 43.80483 1104 ft 144 kts 189°
2026-04-16 11:05 56.27197 43.80132 898 ft 142 kts 189°
2026-04-16 11:06 56.26229 43.79781 729 ft 142 kts 189°
2026-04-16 11:06 56.25260 43.79422 528 ft 142 kts 190°
2026-04-16 11:06 56.24297 43.79070 338 ft 141 kts 189°
2026-04-16 11:06 56.23381 43.78739 267 ft 124 kts 190°
2026-04-16 11:07 56.22702 43.78482 266 ft 75 kts 192°
2026-04-16 11:07 56.22329 43.78351 267 ft 45 kts 191°
2026-04-16 11:07 56.22062 43.78244 267 ft 27 kts 192°
2026-04-16 11:07 56.21958 43.78238 266 ft 1 kts 143°
2026-04-16 11:08 56.21951 43.78266 266 ft 6 kts 111°
2026-04-16 11:08 56.21943 43.78366 267 ft 11 kts 97°
2026-04-16 11:08 56.21922 43.78530 266 ft 16 kts 104°
2026-04-16 11:08 56.21921 43.78652 266 ft 10 kts 65°
2026-04-16 11:09 56.21951 43.78723 266 ft 6 kts 56°
2026-04-16 11:09 56.21947 43.78813 266 ft 2 kts 100°
2026-04-16 11:09 56.21946 43.78829 266 ft 0 kts 99°